STARLINK-2698 (48458 NORAD) Tracking and Keplerian Element Data

This shows tracking and keplerian element data for the satellite.

Feedback or suggestion? Click here.




ElementValue
Catalog48458
NameSTARLINK-2698
Epoch Orbit1397
Epoch Day215.25002315
Epoch Year2021
RAAN165.9173
Inclination53.0493
Eccentricity0.0001032
Argument of Perigee32.9035
Mean Anonmoly267.3424
Mean Motion15.06386857
Decay Rate0.00029266
L11 48458U 21040AG 21215.25002315 .00029266 00000-0 19762-2 0 9997
L22 48458 53.0493 165.9173 0001032 32.9035 267.3424 15.06386857 13972

Live tracking and technical data element details for STARLINK-2698 (NORAD 48458). STARLINK-2698 can be tracked NOW for your location showing map with azimuth and elevation plus other details from your city location.

Track the satellite on the map from your city or location and see movement details for azimuth, elevation, latitude, longitude, range, height, and movement on the map or in text.







IsCatalogInMostPopularTable: catalog: 48458, numindb: 22
Update: records affected: 1



GetName: 48458 STARLINK-2698

Hit Count: updated at: Tue, 03 Aug 2021 23:54:41 GMT